{"data":{"norad_id":61688,"intl_designator":"2024-195B","name":"STARLINK-11344 [DTC]","alt_names":[],"object_type":"PAYLOAD","status":"ACTIVE","operator":null,"country":"US","launch_date":"2024-10-30","launch_site_code":"AFWTR","launch_vehicle":null,"mission":null,"orbit_class":"UNKNOWN","rcs_meters":null,"size_class":null,"mass_kg":null,"dimensions":null,"purposes":["comms"],"wikipedia_slug":null,"has_3d_model":false,"image_url":null,"decayed_at":null,"tle_current":{"epoch":"2026-09-21T21:08:04.141536Z","epoch_age_seconds":69573,"freshness":"FRESH","line1":"1 61688U 24195B   26264.88060349 -.00000444  00000+0  11941-5 0  9991","line2":"2 61688  53.1588 139.4041 0000978  75.4648 284.6478 15.69708926109845","mean_motion":15.69708926,"eccentricity":9.78e-5,"inclination_deg":53.1588,"raan_deg":139.4041,"arg_perigee_deg":75.4648,"mean_anomaly_deg":284.6478,"bstar":1.1941e-6,"rev_number":10984,"period_min":91.736752983209,"perigee_km":359.07086042306,"apogee_km":360.3887871738,"semimajor_km":6737.8668237984,"source":"CELESTRAK","updated_at":"2026-09-22T09:00:49.406066Z"}}}